Showing default

DEIMOS, 60526

Orbit data source: Space-Track

DEIMOS, 60526 is an American payload satellite in SSO that was launched on Fri, 16 Aug 2024 UTC via an FALCON 9 launch vehicle from the Air Force Western Test Range (AFWTR). Payload-class satellites include a variety of spacecraft equipped with specific instruments for various scientific and technological missions. These include communications satellites like Starlink; space stations such as the ISS; scientific satellites like the Hubble; Earth observation satellites from companies like Planet Labs, Umbra, and HawkEye 360; GPS; miniature CubeSats for education and research; and military/defense satellites.

Loading next visibility...
Identifier
60526, 2024-149BL
Orbit
SSO
Country
Flag of USUS
Related business
Manufacturer
Endurosat
Mission
Operational Commercial Imaging
Bus & Motor
CUBESAT 1.5U, Unknown motor
Mass
2 kg wet, 2 kg dry
Launch date (UTC)
2024-08-16 (1 year ago)
Launch vehicle
FALCON 9
Launch site
Air Force Western Test Range (AFWTR)
Object type
Payload
Rocket body
Debris
Shape & HBR
Box, 1.0 m
Radar Cross Section
0.025 m², Small (<0.1 m²)

Expand to show TLE details & history
Last TLE update: 7 hours ago

TLE from 7 hours ago
0 DEIMOS
1 60526U 24149BL  25297.73620777  .00019996  00000-0  59991-3 0  9993
2 60526  97.3996  16.8199 0007428  60.8820 299.3166 15.34470652 66222
Epoch: 2025-10-24T17:40Z
TLE epoch observation values (Epoch: 2025-10-24T17:40:08.351Z)
Latitude
0.00001°
Longitude
78.40827°
Altitude
463.118 km
Speed
7.636 km/s
True Right ascension
01h 07m 16s
True Declination
0° 00' 00"
Sunlit
Object was in full shadow at epoch
Visualization orbit readout
Latitude
Unknown
Longitude
Unknown
Altitude
Unknown
Speed
Unknown
Apparent Right ascension
Unknown
Apparent Declination
Unknown
Sunlit
N/A
Visualization observer readout
Local Sidereal Time
20:07:16
Azimuth
Unknown
Elevation
Unknown
Doppler factor
Unknown
Orbital elements
Apogee altitude
464.518 km
Perigee altitude
454.361 km
Semi-major axis
6,837.577 km
Eccentricity
0.00074
Inclination
97.3996°
RAAN
16.8199°
Arg. of periapsis
60.882°
True anomaly
299.24235°
Mean anomaly
299.3166°
Eccentric anomaly
299.27948°
Mean motion
3.83875 °/min
Orbital period
93.78 mins
BSTAR
0.00059991
Loading maneuver chart data...
Computing Atmospheric mass density...
Loading historical data...
Loading historical data...
Loading historical data...
Loading historical data...
Loading historical data...
Loading historical data...
Loading historical data...

Documentation

Showing up to 5 results
|